User: anonymous   Login
Location: Unspecified
(0.0000°N, 0.0000°E)
Time: 18:10:11
(UTC+00:00)
Language:

Transit 4A - Orbit

View from above orbital plane
View from above orbital plane
View from above satellite
View from above satellite

Ground track
Ground track

The orbit data is extracted from the following two-line orbital elements,

1   116U 61015A   21212.21515199 -.00000065  00000-0  89949-5 0  9998
2   116  66.8101 288.9344 0068602  81.8204 279.0649 13.91793988 49193
Epoch (UTC): 31 July 2021 05:09:49
Eccentricity: 0.0068602
inclination: 66.8101°
perigee height: 872 km
apogee height: 972 km
right ascension of ascending node: 288.9344°
argument of perigee: 81.8204°
revolutions per day: 13.91793988
mean anomaly at epoch: 279.0649°
orbit number at epoch: 4919

The dashed part of the orbit path shows where the satellite is in the earth's shadow,  

DLR